GLD1793 FMEE-FMEP

Flight info

Callsign GLD1793
Flight time 0h 17m
Altitude 3000
Route FMEE DCT FMEP
Aircraft BE58/M-SDFGIRY/S

Departure

Time 2026-05-03 23:49
Airport Roland Garros Airport (FMEE)

Arrival

Time 2026-05-04 00:07
Airport Saint-Pierre Pierrefonds Airport (FMEP)
Time Latitude Longitude Altitude Speed Heading
2026-05-03 23:40 -20.89080 55.51241 51 ft 0 kts 201°
2026-05-03 23:45 -20.89087 55.51243 79 ft 5 kts 128°
2026-05-03 23:45 -20.89083 55.51284 51 ft 10 kts 94°
2026-05-03 23:45 -20.89068 55.51374 51 ft 15 kts 86°
2026-05-03 23:45 -20.89043 55.51487 51 ft 12 kts 65°
2026-05-03 23:46 -20.89041 55.51493 51 ft 0 kts 65°
2026-05-03 23:46 -20.89038 55.51498 51 ft 5 kts 65°
2026-05-03 23:46 -20.89006 55.51589 50 ft 20 kts 73°
2026-05-03 23:47 -20.89007 55.51668 49 ft 0 kts 116°
2026-05-03 23:49 -20.89008 55.51669 49 ft 2 kts 116°
2026-05-03 23:49 -20.89125 55.51919 48 ft 80 kts 117°
2026-05-03 23:49 -20.89414 55.52597 279 ft 106 kts 114°
2026-05-03 23:49 -20.89666 55.53359 686 ft 113 kts 115°
2026-05-03 23:50 -20.89945 55.54163 1131 ft 116 kts 116°
2026-05-03 23:50 -20.90082 55.54720 1443 ft 121 kts 94°
2026-05-03 23:50 -20.89340 55.55629 2040 ft 136 kts 30°
2026-05-03 23:50 -20.88418 55.56162 2060 ft 160 kts 31°
2026-05-03 23:51 -20.87447 55.56718 2057 ft 158 kts 31°
2026-05-03 23:51 -20.86451 55.57135 2057 ft 152 kts
2026-05-03 23:51 -20.85553 55.56672 2057 ft 145 kts 304°
2026-05-03 23:51 -20.85161 55.55725 2057 ft 136 kts 275°
2026-05-03 23:52 -20.85045 55.54685 2060 ft 148 kts 276°
2026-05-03 23:52 -20.84864 55.53567 2058 ft 156 kts 278°
2026-05-03 23:52 -20.84703 55.52405 2056 ft 159 kts 264°
2026-05-03 23:52 -20.84999 55.51268 2058 ft 162 kts 249°
2026-05-03 23:53 -20.85377 55.50115 2059 ft 165 kts 249°
2026-05-03 23:53 -20.85719 55.48945 2059 ft 166 kts 252°
2026-05-03 23:53 -20.86016 55.47756 2056 ft 166 kts 254°
2026-05-03 23:53 -20.86310 55.46524 2060 ft 179 kts 253°
2026-05-03 23:54 -20.86889 55.45292 2057 ft 188 kts 233°
2026-05-03 23:54 -20.87617 55.44113 2057 ft 196 kts 235°
2026-05-03 23:54 -20.88362 55.42864 2057 ft 201 kts 236°
2026-05-03 23:54 -20.89141 55.41620 2049 ft 199 kts 227°
2026-05-03 23:55 -20.90251 55.40778 2205 ft 189 kts 215°
2026-05-03 23:55 -20.91158 55.39878 2737 ft 169 kts 227°
2026-05-03 23:55 -20.91894 55.38920 3136 ft 160 kts 230°
2026-05-03 23:55 -20.92587 55.37991 3331 ft 169 kts 231°
2026-05-03 23:56 -20.93347 55.36997 3496 ft 170 kts 228°
2026-05-03 23:56 -20.94174 55.36125 3675 ft 174 kts 211°
2026-05-03 23:56 -20.95293 55.35484 3552 ft 190 kts 206°
2026-05-03 23:56 -20.96502 55.34808 3438 ft 199 kts 208°
2026-05-03 23:57 -20.97709 55.34036 3322 ft 205 kts 211°
2026-05-03 23:57 -20.98924 55.33225 3205 ft 206 kts 211°
2026-05-03 23:57 -21.00119 55.32429 3139 ft 209 kts 211°
2026-05-03 23:57 -21.01360 55.31606 3019 ft 211 kts 211°
2026-05-03 23:58 -21.02621 55.30773 2904 ft 213 kts 211°
2026-05-03 23:58 -21.03868 55.29949 2779 ft 214 kts 211°
2026-05-03 23:58 -21.05130 55.29115 2779 ft 209 kts 211°
2026-05-03 23:58 -21.06352 55.28306 2853 ft 204 kts 211°
2026-05-03 23:59 -21.07547 55.27516 2925 ft 201 kts 211°
2026-05-03 23:59 -21.08731 55.26732 2955 ft 201 kts 211°
2026-05-03 23:59 -21.09916 55.25947 2956 ft 199 kts 211°
2026-05-03 23:59 -21.11094 55.25168 2956 ft 200 kts 211°
2026-05-04 00:00 -21.12280 55.24382 2956 ft 200 kts 211°
2026-05-04 00:00 -21.13462 55.23599 2956 ft 200 kts 211°
2026-05-04 00:00 -21.14729 55.23002 2955 ft 199 kts 192°
2026-05-04 00:00 -21.16105 55.22962 2954 ft 199 kts 171°
2026-05-04 00:01 -21.17394 55.23468 2953 ft 199 kts 149°
2026-05-04 00:01 -21.18421 55.24449 2952 ft 199 kts 130°
2026-05-04 00:01 -21.19276 55.25589 2954 ft 199 kts 130°
2026-05-04 00:01 -21.20152 55.26740 2998 ft 199 kts 129°
2026-05-04 00:02 -21.21037 55.27905 2971 ft 202 kts 128°
2026-05-04 00:02 -21.21928 55.29072 2974 ft 202 kts 128°
2026-05-04 00:02 -21.22521 55.29843 2969 ft 202 kts 128°
2026-05-04 00:02 -21.23407 55.30988 2965 ft 190 kts 128°
2026-05-04 00:03 -21.24204 55.32018 2889 ft 172 kts 129°
2026-05-04 00:03 -21.24936 55.32970 2441 ft 160 kts 127°
2026-05-04 00:03 -21.25586 55.33883 2135 ft 144 kts 126°
2026-05-04 00:03 -21.26154 55.34713 1810 ft 130 kts 127°
2026-05-04 00:04 -21.26681 55.35455 1510 ft 131 kts 128°
2026-05-04 00:04 -21.27239 55.36263 1073 ft 142 kts 126°
2026-05-04 00:04 -21.27864 55.37085 731 ft 140 kts 132°
2026-05-04 00:04 -21.28506 55.37819 557 ft 130 kts 129°
2026-05-04 00:05 -21.29067 55.38544 432 ft 122 kts 127°
2026-05-04 00:05 -21.29594 55.39229 335 ft 116 kts 127°
2026-05-04 00:05 -21.30073 55.39840 258 ft 99 kts 127°
2026-05-04 00:05 -21.30505 55.40398 202 ft 97 kts 126°
2026-05-04 00:06 -21.30932 55.40956 142 ft 95 kts 126°
2026-05-04 00:06 -21.31341 55.41496 72 ft 91 kts 124°
2026-05-04 00:06 -21.31737 55.42001 48 ft 83 kts 124°
2026-05-04 00:06 -21.32030 55.42404 43 ft 56 kts 130°
2026-05-04 00:07 -21.32141 55.42544 42 ft 13 kts 120°
2026-05-04 00:07 -21.32132 55.42587 42 ft 4 kts 38°
2026-05-04 00:07 -21.32113 55.42602 42 ft 3 kts 36°
2026-05-04 00:07 -21.32093 55.42618 41 ft 5 kts 38°
2026-05-04 00:08 -21.32062 55.42645 41 ft 6 kts 39°
2026-05-04 00:08 -21.32040 55.42681 41 ft 6 kts 72°
2026-05-04 00:08 -21.32018 55.42702 41 ft 5 kts 348°
2026-05-04 00:08 -21.31991 55.42684 41 ft 4 kts 308°
2026-05-04 00:09 -21.31990 55.42679 41 ft 0 kts 271°